This demonstration page uses our WeatherBlox Daily Observations layout. Learn more.

39.92423, -83.80882

Hourly Observations for May 28, 2020

Temp ( °F °C ) Dew Point ( °F °C ) Humidity (%) Winds ( mph kmh ) Pressure ( in mb ) Visibility ( mi km ) Precip ( " mm )
12:56 am 00:56 Clear 70 21.1 70 21.1 100 100 ESE 5 7 29.97 1015 9 14.48406 0 0
1:56 am 01:56 Cloudy 71 21.7 69 20.6 94 94 SE 8 13 29.96 1014 10 16.0934 0 0
2:56 am 02:56 Cloudy 70 21.1 68 20 93 93 SE 10 17 29.95 1014 10 16.0934 0 0
3:56 am 03:56 Cloudy with Rain 67 19.4 67 19.4 100 100 SE 8 13 29.96 1014 9 14.48406 0 0
4:56 am 04:56 Cloudy with Light Rain 66 18.9 66 18.9 100 100 ESE 9 15 29.96 1014 10 16.0934 0 0
5:56 am 05:56 Cloudy with Light Rain 65 18.3 65 18.3 100 100 ESE 8 13 29.95 1014 10 16.0934 0 0
6:04 am 06:04 Cloudy with Light Rain 64 18 64 18 100 100 ESE 9 15 29.95 1014 10 16.0934 0 0
6:56 am 06:56 Cloudy with Light Rain 65 18.3 65 18.3 100 100 ESE 9 15 29.96 1015 7 11.26538 0 0
7:56 am 07:56 Cloudy with Light Rain 65 18.3 65 18.3 100 100 SE 9 15 29.96 1015 6 9.65604 0 0
8:56 am 08:56 Cloudy 66 18.9 66 18.9 100 100 SE 8 13 29.96 1015 10 16.0934 0 0
9:56 am 09:56 Cloudy 68 20 68 20 100 100 SE 10 17 29.96 1014 10 16.0934 0 0
10:29 am 10:29 Cloudy 70 21 70 21 100 100 SE 9 15 29.93 1013 10 16.0934 0.03 0.762
10:56 am 10:56 Cloudy 69 20.6 69 20.6 100 100 S 7 11 29.95 1014 10 16.0934 0.03 0.762
11:06 am 11:06 Cloudy 72 22 72 22 100 100 S 9 15 29.92 1013 10 16.0934 0 0
11:26 am 11:26 Cloudy 73 23 70 21 89 89 SSW 12 19 29.92 1013 10 16.0934 0 0
11:56 am 11:56 Mostly Cloudy 74 23.3 69 20.6 85 85 SSW 8 13 29.95 1014 10 16.0934 0 0
12:30 pm 12:30 Mostly Cloudy 75 24 70 21 83 83 SSW 14 22 29.92 1013 10 16.0934 0 0
12:56 pm 12:56 Mostly Cloudy 76 24.4 68 20 77 77 SW 17 28 29.94 1014 10 16.0934 0 0
1:07 pm 13:07 Mostly Cloudy 75 24 68 20 78 78 SW 18 30 29.92 1013 10 16.0934 0 0
1:16 pm 13:16 Partly Cloudy 77 25 68 20 74 74 WSW 18 30 29.91 1013 10 16.0934 0 0
1:56 pm 13:56 Mostly Cloudy 76 24.4 66 18.9 72 72 WSW 18 30 29.94 1014 10 16.0934 0 0
2:56 pm 14:56 Mostly Cloudy 77 25 66 18.9 69 69 WSW 15 24 29.94 1014 10 16.0934 0 0
3:56 pm 15:56 Mostly Cloudy 78 25.6 67 19.4 69 69 SW 12 19 29.92 1013 10 16.0934 0 0
4:56 pm 16:56 Sunny 79 26.1 65 18.3 62 62 SW 13 20 29.91 1013 10 16.0934 0 0
5:56 pm 17:56 Sunny 79 26.1 64 17.8 60 60 SW 9 15 29.9 1012 10 16.0934 0 0
6:56 pm 18:56 Mostly Cloudy 79 26.1 64 17.8 60 60 SW 10 17 29.9 1012 10 16.0934 0 0
7:56 pm 19:56 Mostly Sunny 78 25.6 63 17.2 60 60 SSW 9 15 29.91 1013 10 16.0934 0 0
8:56 pm 20:56 Mostly Clear 76 24.4 64 17.8 67 67 SSW 3 6 29.91 1013 10 16.0934 0 0
9:56 pm 21:56 Mostly Cloudy 74 23.3 63 17.2 69 69 Calm 29.91 1013 10 16.0934 0 0
10:56 pm 22:56 Mostly Clear 73 22.8 63 17.2 71 71 S 5 7 29.92 1013 10 16.0934 0 0
11:56 pm 23:56 Cloudy 73 22.8 64 17.8 74 74 S 6 9 29.92 1013 10 16.0934 0 0

Powered by AerisWeather